�N����,����,�~����,�C��,���x,�C��,����,���ϕ���,�ő�u�ԕ���,�ő厞����,���˗�,�I�_���x,�n�����x,�ő啗���N��,DTYPE
"22/08/02","00:10",0.0,25.8,79.3,1007.8,320.6,1.0,1.7,315.9,0.00,22.0,26.5,"00:01:36",1
"22/08/02","00:20",0.0,25.8,79.7,1008.1,319.3,1.3,2.1,350.4,0.00,22.1,26.3,"00:14:00",1
"22/08/02","00:30",0.0,25.9,79.4,1008.1,320.9,1.5,2.8,318.5,0.00,22.1,26.4,"00:26:24",1
"22/08/02","00:40",0.0,26.2,78.3,1008.1,342.3,1.8,2.8,347.1,0.00,22.2,26.4,"00:31:04",1
"22/08/02","00:50",0.0,26.2,77.6,1007.8,312.4,1.2,2.4,337.7,0.00,22.0,26.5,"00:40:16",1
"22/08/02","01:00",0.0,26.0,77.8,1008.1,321.3,1.0,1.7,315.0,0.00,21.9,26.2,"00:55:20",1
"22/08/02","01:10",0.0,25.8,78.4,1007.4,337.0,1.2,2.1,336.0,0.00,21.8,26.3,"01:08:40",1
"22/08/02","01:20",0.0,26.0,78.4,1007.8,342.9,1.6,2.5,347.7,0.00,22.0,26.2,"01:12:16",1
"22/08/02","01:30",0.0,25.9,78.5,1007.8,327.2,1.1,1.8,331.2,0.00,21.9,26.1,"01:21:28",1
"22/08/02","01:40",0.0,25.7,79.1,1007.6,6.7,0.3,1.2,79.0,0.00,21.8,26.3,"01:36:00",1
"22/08/02","01:50",0.0,25.7,79.2,1007.4,354.9,0.3,1.3,345.9,0.00,21.9,26.2,"01:49:36",1
"22/08/02","02:00",0.0,25.6,79.3,1007.4,302.5,0.7,1.4,334.0,0.00,21.8,26.2,"01:58:48",1
"22/08/02","02:10",0.0,25.7,79.4,1007.8,311.7,1.1,2.1,336.0,0.00,21.9,26.2,"02:08:02",1
"22/08/02","02:20",0.0,25.8,79.0,1007.8,323.1,0.7,1.8,334.0,0.00,21.9,26.2,"02:11:04",1
"22/08/02","02:30",0.0,25.6,79.6,1007.6,323.9,0.8,1.4,296.2,0.00,21.9,26.0,"02:28:24",1
"22/08/02","02:40",0.0,25.4,80.2,1007.6,0.0,0.6,1.1,343.8,0.00,21.8,26.0,"02:32:24",1
"22/08/02","02:50",0.0,25.2,80.8,1007.6,317.5,0.7,1.8,335.4,0.00,21.7,26.0,"02:46:00",1
"22/08/02","03:00",0.0,25.4,81.2,1007.6,333.9,1.5,2.2,320.8,0.00,22.0,26.0,"02:56:32",1
"22/08/02","03:10",0.0,25.8,81.0,1007.8,316.4,1.5,3.3,340.6,0.00,22.3,26.1,"03:07:36",1
"22/08/02","03:20",0.0,26.3,79.9,1007.6,325.8,1.7,2.5,337.2,0.00,22.6,26.1,"03:13:28",1
"22/08/02","03:30",0.0,26.1,79.6,1007.6,327.4,1.5,2.4,307.5,0.00,22.3,26.0,"03:20:08",1
"22/08/02","03:40",0.0,26.1,80.1,1007.6,338.4,1.8,2.7,349.7,0.00,22.4,26.2,"03:33:28",1
"22/08/02","03:50",0.0,25.8,80.7,1007.6,320.4,1.3,2.1,326.0,0.00,22.3,26.0,"03:41:28",1
"22/08/02","04:00",0.0,25.7,81.4,1007.4,326.3,1.8,3.1,324.2,0.00,22.3,25.7,"03:56:56",1
"22/08/02","04:10",0.0,25.5,82.0,1007.8,322.2,1.7,2.6,328.8,0.00,22.2,25.7,"04:00:32",1
"22/08/02","04:20",0.0,25.3,82.6,1007.8,302.0,1.2,2.2,304.3,0.00,22.2,26.0,"04:11:12",1
"22/08/02","04:30",0.0,25.2,83.2,1008.1,317.5,1.2,1.8,323.3,0.00,22.2,26.0,"04:23:20",1
"22/08/02","04:40",0.0,25.3,83.7,1008.1,323.1,1.3,2.2,340.8,0.00,22.4,25.9,"04:32:24",1
"22/08/02","04:50",0.0,25.3,84.1,1008.3,304.4,1.1,1.9,259.4,0.00,22.5,25.7,"04:46:00",1
"22/08/02","05:00",0.0,25.1,84.4,1008.6,306.3,1.2,2.1,331.5,0.00,22.3,25.6,"04:52:48",1
"22/08/02","05:10",0.0,25.0,84.7,1008.6,313.3,1.1,1.9,330.8,0.00,22.3,25.7,"05:02:48",1
"22/08/02","05:20",0.0,24.9,85.2,1008.3,292.3,1.0,2.0,308.7,0.00,22.3,25.7,"05:13:20",1
"22/08/02","05:30",0.0,24.7,85.6,1008.6,303.9,1.0,1.7,333.5,0.00,22.2,25.7,"05:21:20",1
"22/08/02","05:40",0.0,24.6,86.0,1008.8,314.8,1.2,2.1,326.9,0.00,22.1,25.6,"05:31:20",1
"22/08/02","05:50",0.0,24.5,86.5,1008.8,306.9,1.0,1.9,334.1,0.00,22.1,25.7,"05:48:00",1
"22/08/02","06:00",0.0,24.5,86.9,1009.0,319.9,1.1,1.7,310.4,0.00,22.2,25.6,"05:50:32",1
"22/08/02","06:10",0.0,24.6,87.3,1009.0,320.1,1.1,1.9,344.9,0.00,22.4,25.7,"06:09:20",1
"22/08/02","06:20",0.0,24.7,87.6,1009.0,322.7,1.5,2.5,333.0,0.00,22.5,25.6,"06:15:28",1
"22/08/02","06:30",0.0,25.0,87.5,1009.3,292.7,1.1,2.0,339.6,0.00,22.8,25.7,"06:27:36",1
"22/08/02","06:40",0.0,25.2,87.4,1009.5,292.6,1.0,1.4,328.7,0.00,23.0,25.5,"06:30:08",1
"22/08/02","06:50",0.0,25.5,87.1,1009.3,314.3,1.1,1.8,301.9,0.01,23.2,25.5,"06:43:52",1
"22/08/02","07:00",0.0,26.2,86.6,1008.8,316.8,1.0,2.0,330.2,0.07,23.8,25.6,"06:53:52",1
"22/08/02","07:10",0.0,27.0,84.9,1009.0,277.4,0.5,1.6,200.9,0.08,24.3,25.6,"07:06:08",1
"22/08/02","07:20",0.0,28.0,82.1,1009.0,314.3,0.2,1.0,311.9,0.09,24.7,25.6,"07:19:12",1
"22/08/02","07:30",0.0,28.8,79.4,1008.8,12.6,0.8,1.9,23.2,0.11,24.9,25.5,"07:24:40",1
"22/08/02","07:40",0.0,29.5,75.9,1008.3,32.1,0.7,1.3,359.4,0.16,24.8,25.7,"07:31:36",1
"22/08/02","07:50",0.0,30.2,72.7,1008.6,18.0,0.5,1.3,354.4,0.15,24.8,25.5,"07:41:36",1
"22/08/02","08:00",0.0,30.6,71.3,1008.8,4.8,0.6,1.4,33.7,0.18,24.8,25.6,"07:56:48",1
"22/08/02","08:10",0.0,31.1,69.2,1008.8,38.8,0.8,1.8,8.6,0.23,24.8,25.5,"08:08:56",1
"22/08/02","08:20",0.0,31.2,68.9,1009.3,31.0,0.6,1.9,14.8,0.19,24.8,25.6,"08:12:48",1
"22/08/02","08:30",0.0,32.0,67.4,1009.5,63.0,0.6,1.6,44.8,0.34,25.2,25.7,"08:27:20",1
"22/08/02","08:40",0.0,32.1,66.2,1009.7,25.6,0.7,1.7,7.7,0.24,25.0,25.6,"08:34:24",1
"22/08/02","08:50",0.0,31.1,66.9,1009.7,203.6,0.7,1.7,14.0,0.13,24.3,25.6,"08:41:52",1
"22/08/02","09:00",0.0,31.1,69.2,1009.7,171.1,0.7,1.7,138.9,0.27,24.8,25.7,"08:59:44",1
"22/08/02","09:10",0.0,31.0,68.8,1009.7,186.3,0.6,1.2,173.4,0.18,24.6,26.0,"09:01:44",1
"22/08/02","09:20",0.0,31.0,69.2,1009.7,199.5,0.8,2.4,233.9,0.22,24.7,25.7,"09:13:52",1
"22/08/02","09:30",0.0,32.3,67.4,1010.0,96.6,0.6,1.6,111.9,0.41,25.5,25.8,"09:23:44",1
"22/08/02","09:40",0.0,33.1,65.0,1010.2,133.2,1.2,2.1,160.7,0.44,25.7,25.6,"09:34:48",1
"22/08/02","09:50",0.0,32.5,64.9,1010.2,221.3,1.3,3.1,241.0,0.44,25.1,25.8,"09:45:12",1
"22/08/02","10:00",0.0,32.9,64.2,1010.7,157.5,1.2,2.6,202.5,0.48,25.3,26.0,"09:51:04",1
"22/08/02","10:10",0.0,33.1,62.6,1010.7,147.2,1.3,3.6,202.8,0.52,25.0,25.8,"10:02:32",1
"22/08/02","10:20",0.0,32.8,63.2,1010.7,146.1,1.2,2.7,131.5,0.38,24.9,25.9,"10:15:52",1
"22/08/02","10:30",0.0,33.4,64.7,1010.7,141.3,1.3,2.6,147.4,0.53,25.9,26.0,"10:25:36",1
"22/08/02","10:40",0.0,33.8,62.3,1010.7,164.5,0.6,1.7,217.9,0.40,25.6,25.9,"10:30:24",1
"22/08/02","10:50",0.0,34.0,61.5,1010.7,142.1,1.2,3.1,129.5,0.53,25.6,26.0,"10:46:00",1
"22/08/02","11:00",0.0,34.4,60.6,1010.9,203.3,1.1,2.7,226.9,0.55,25.7,26.2,"10:53:20",1
"22/08/02","11:10",0.0,34.2,59.7,1010.9,198.9,1.6,3.3,218.0,0.56,25.3,26.0,"11:07:04",1
"22/08/02","11:20",0.0,34.3,59.3,1010.9,149.9,1.0,2.7,140.6,0.43,25.3,26.0,"11:15:04",1
"22/08/02","11:30",0.0,34.1,60.9,1010.7,151.1,1.5,3.9,226.7,0.43,25.5,26.2,"11:23:12",1
"22/08/02","11:40",0.0,34.8,58.6,1010.4,252.5,0.8,2.7,239.5,0.52,25.5,26.3,"11:36:48",1
"22/08/02","11:50",0.0,34.4,59.3,1010.2,241.1,1.3,3.6,226.7,0.37,25.4,26.6,"11:47:36",1
"22/08/02","12:00",0.0,35.1,58.0,1010.0,165.9,1.3,2.7,186.9,0.60,25.6,26.4,"11:55:36",1
"22/08/02","12:10",0.0,36.1,55.3,1010.2,145.1,0.7,1.8,123.7,0.61,25.8,26.4,"12:08:16",1
"22/08/02","12:20",0.0,35.5,55.0,1010.2,159.8,1.0,2.2,226.1,0.43,25.1,26.5,"12:13:36",1
"22/08/02","12:30",0.0,35.6,55.1,1009.7,183.4,1.5,2.7,232.5,0.61,25.2,26.5,"12:21:12",1
"22/08/02","12:40",0.0,35.2,56.1,1009.7,199.8,2.0,4.4,196.3,0.51,25.2,26.6,"12:39:28",1
"22/08/02","12:50",0.0,35.7,53.9,1009.3,217.2,1.5,4.2,190.7,0.57,25.0,26.7,"12:40:32",1
"22/08/02","13:00",0.0,35.9,53.3,1010.0,205.1,1.7,4.0,240.7,0.54,25.0,26.7,"12:57:04",1
"22/08/02","13:10",0.0,36.3,54.4,1009.7,179.0,1.3,4.0,231.5,0.55,25.7,26.8,"13:02:48",1
"22/08/02","13:20",0.0,36.4,53.4,1009.7,198.0,1.3,4.8,215.2,0.58,25.4,26.7,"13:15:12",1
"22/08/02","13:30",0.0,36.6,51.2,1009.7,195.6,1.5,3.5,206.5,0.59,24.9,26.9,"13:24:40",1
"22/08/02","13:40",0.0,37.0,52.6,1009.3,207.9,1.7,3.9,214.0,0.57,25.7,26.7,"13:32:48",1
"22/08/02","13:50",0.0,37.4,49.3,1009.5,189.5,1.0,3.3,339.2,0.58,25.0,27.0,"13:46:56",1
"22/08/02","14:00",0.0,37.3,49.0,1009.5,220.5,1.5,4.2,336.4,0.56,24.8,26.9,"13:57:36",1
"22/08/02","14:10",0.0,37.3,47.1,1009.5,238.0,1.2,4.4,346.9,0.53,24.2,27.0,"14:08:40",1
"22/08/02","14:20",0.0,37.1,46.2,1009.3,296.5,1.6,3.9,353.8,0.51,23.7,27.0,"14:14:00",1
"22/08/02","14:30",0.0,37.6,47.1,1009.3,193.6,1.2,3.7,197.1,0.55,24.4,27.1,"14:29:28",1
"22/08/02","14:40",0.0,37.8,45.9,1009.5,226.0,1.3,3.2,210.4,0.54,24.2,27.1,"14:30:16",1
"22/08/02","14:50",0.0,38.0,43.7,1009.5,271.9,1.2,3.3,219.7,0.50,23.5,27.2,"14:41:52",1
"22/08/02","15:00",0.0,37.8,46.3,1009.0,339.8,1.6,3.9,357.0,0.48,24.3,27.2,"14:50:32",1
"22/08/02","15:10",0.0,37.4,47.9,1008.6,231.2,2.2,4.8,205.9,0.47,24.5,27.2,"15:09:04",1
"22/08/02","15:20",0.0,37.0,47.9,1008.6,221.3,2.2,4.1,222.0,0.43,24.2,27.3,"15:13:36",1
"22/08/02","15:30",0.0,36.7,48.6,1008.1,211.9,2.7,5.2,230.8,0.39,24.1,27.4,"15:25:36",1
"22/08/02","15:40",0.0,37.0,49.4,1007.8,233.0,1.8,5.1,223.4,0.37,24.7,27.2,"15:37:28",1
"22/08/02","15:50",0.0,37.5,47.9,1007.8,214.3,2.0,3.5,192.5,0.38,24.6,27.5,"15:40:16",1
"22/08/02","16:00",0.0,37.5,48.4,1007.8,288.1,1.2,2.9,345.2,0.33,24.8,27.3,"15:55:36",1
"22/08/02","16:10",0.0,37.1,47.9,1007.6,241.5,1.7,4.1,333.2,0.30,24.3,27.4,"16:05:44",1
"22/08/02","16:20",0.0,37.1,49.7,1007.8,269.9,1.3,3.3,356.6,0.30,24.9,27.1,"16:11:28",1
"22/08/02","16:30",0.0,37.0,47.6,1007.8,278.1,1.5,3.7,337.0,0.29,24.1,27.2,"16:29:28",1
"22/08/02","16:40",0.0,37.1,48.6,1008.1,311.3,1.3,2.6,333.8,0.27,24.5,27.5,"16:33:04",1
"22/08/02","16:50",0.0,36.3,51.5,1007.8,249.0,2.3,4.8,239.2,0.26,24.7,27.7,"16:46:48",1
"22/08/02","17:00",0.0,36.1,52.8,1007.8,230.7,2.3,5.7,233.2,0.21,25.0,27.3,"16:58:56",1
"22/08/02","17:10",0.0,36.1,53.2,1007.6,240.0,1.6,5.4,224.6,0.19,25.1,27.6,"17:00:08",1
"22/08/02","17:20",0.0,36.0,52.0,1007.6,239.5,1.8,5.0,235.3,0.18,24.6,27.6,"17:16:40",1
"22/08/02","17:30",0.0,35.9,51.7,1007.1,254.7,1.0,2.1,201.7,0.12,24.4,27.6,"17:29:28",1
"22/08/02","17:40",0.0,35.8,51.9,1007.1,267.0,1.2,3.4,232.7,0.11,24.4,27.5,"17:32:24",1
"22/08/02","17:50",0.0,35.4,52.4,1006.9,243.3,1.6,4.0,237.9,0.10,24.2,27.5,"17:42:00",1
"22/08/02","18:00",0.0,35.3,52.2,1006.9,243.8,1.7,5.0,232.6,0.08,24.1,27.5,"17:59:20",1
"22/08/02","18:10",0.0,35.1,52.6,1007.1,244.7,1.3,3.9,231.9,0.04,24.0,27.5,"18:07:36",1
"22/08/02","18:20",0.0,34.8,53.2,1006.9,234.4,1.6,5.1,220.7,0.03,23.9,27.5,"18:15:20",1
"22/08/02","18:30",0.0,34.4,52.6,1006.7,243.7,1.2,2.7,226.5,0.02,23.3,27.6,"18:21:12",1
"22/08/02","18:40",0.0,34.2,53.7,1006.7,268.3,1.1,2.9,249.7,0.01,23.5,27.4,"18:32:00",1
"22/08/02","18:50",0.0,33.8,55.3,1006.4,276.0,1.0,3.6,238.4,0.01,23.6,27.4,"18:42:40",1
"22/08/02","19:00",0.0,33.5,56.9,1006.0,317.1,1.2,2.6,327.7,0.00,23.8,27.6,"18:50:48",1
"22/08/02","19:10",0.0,33.1,58.9,1005.7,327.5,1.3,2.8,352.4,0.00,24.0,27.3,"19:06:32",1
"22/08/02","19:20",0.0,32.6,60.6,1005.7,330.5,1.1,2.1,322.2,0.00,24.0,27.4,"19:10:16",1
"22/08/02","19:30",0.0,32.3,61.6,1005.7,333.6,1.3,3.5,342.1,0.00,24.0,27.7,"19:22:24",1
"22/08/02","19:40",0.0,32.1,62.7,1005.7,341.6,1.3,2.6,305.2,0.00,24.1,27.2,"19:35:28",1
"22/08/02","19:50",0.0,31.7,64.0,1005.7,342.4,1.3,3.1,0.9,0.00,24.1,27.4,"19:41:20",1
"22/08/02","20:00",0.0,31.5,64.9,1005.2,342.0,1.2,2.9,347.7,0.00,24.1,27.4,"19:54:48",1
"22/08/02","20:10",0.0,31.1,66.0,1005.0,350.5,1.1,2.9,349.6,0.00,24.0,27.2,"20:07:52",1
"22/08/02","20:20",0.0,30.9,66.9,1005.2,356.7,1.0,1.8,340.4,0.00,24.1,27.4,"20:12:08",1
"22/08/02","20:30",0.0,30.5,68.8,1005.0,7.3,0.8,1.8,22.2,0.00,24.2,27.3,"20:20:24",1
"22/08/02","20:40",0.0,30.1,70.5,1005.0,15.8,0.5,1.3,352.4,0.00,24.2,27.3,"20:36:00",1
"22/08/02","20:50",0.0,29.6,72.1,1005.0,318.3,0.5,1.1,327.9,0.00,24.1,27.1,"20:44:08",1
"22/08/02","21:00",0.0,29.7,72.7,1004.8,321.9,1.1,2.0,350.8,0.00,24.3,27.4,"20:56:08",1
"22/08/02","21:10",0.0,29.5,73.2,1005.2,347.8,1.0,1.6,346.0,0.00,24.2,27.2,"21:02:16",1
"22/08/02","21:20",0.0,29.1,74.4,1005.5,340.4,1.0,1.8,351.1,0.00,24.1,27.2,"21:14:32",1
"22/08/02","21:30",0.0,28.8,75.6,1005.7,336.2,0.8,1.8,339.6,0.00,24.1,27.2,"21:25:12",1
"22/08/02","21:40",0.0,28.7,76.6,1006.0,333.6,1.3,2.5,340.9,0.00,24.2,27.1,"21:35:36",1
"22/08/02","21:50",0.0,28.6,76.8,1006.0,339.5,1.6,3.1,347.4,0.00,24.2,27.0,"21:40:16",1
"22/08/02","22:00",0.0,28.8,76.2,1006.0,331.0,1.5,2.5,323.0,0.00,24.2,27.1,"21:52:56",1
"22/08/02","22:10",0.0,28.8,75.9,1006.4,333.5,1.2,2.2,340.8,0.00,24.2,27.0,"22:00:08",1
"22/08/02","22:20",0.0,28.5,76.4,1006.0,338.9,1.1,2.0,357.6,0.00,24.0,27.1,"22:19:44",1
"22/08/02","22:30",0.0,28.4,77.2,1006.0,336.6,1.2,2.0,342.6,0.00,24.1,26.9,"22:28:48",1
"22/08/02","22:40",0.0,28.3,77.8,1006.2,336.1,1.5,2.4,341.8,0.00,24.1,27.1,"22:39:44",1
"22/08/02","22:50",0.0,28.6,77.5,1006.2,334.3,1.8,2.8,343.4,0.00,24.3,27.0,"22:40:24",1
"22/08/02","23:00",0.0,28.3,77.4,1006.2,329.1,1.1,2.4,349.8,0.00,24.0,27.0,"22:50:32",1
"22/08/02","23:10",0.0,28.2,78.0,1006.0,314.6,1.0,2.0,302.4,0.00,24.0,27.0,"23:09:28",1
"22/08/02","23:20",0.0,28.0,78.3,1006.4,346.6,1.6,2.6,348.8,0.00,23.9,26.8,"23:18:40",1
"22/08/02","23:30",0.0,27.6,79.0,1006.2,344.1,1.7,2.6,344.8,0.00,23.7,26.9,"23:25:20",1
"22/08/02","23:40",0.0,27.3,79.7,1006.2,329.7,1.3,2.2,336.7,0.00,23.5,26.8,"23:32:08",1
"22/08/02","23:50",0.0,27.1,80.3,1006.4,322.8,0.6,1.4,358.9,0.00,23.5,26.9,"23:44:48",1
"22/08/02","24:00",0.0,27.0,80.8,1006.4,322.7,0.7,1.3,330.2,0.00,23.5,26.8,"23:52:48",1
